Flag for Germany Weather past 2 weeks in Fürstenwalde/Spree, Brandenburg, Germany

Now
64 °F

Overcast.


Feels Like: 64 °F
Forecast: 56 / 68 °F
Wind: 6 mph from West

Location: Lindenberg

Current Time: Jul 28, 2015 at 8:22:50 PM

Latest Report: Jul 28, 2015 at 8:00 PM


Visibility: 28 mi

Pressure: 29.68 "Hg

Humidity: 58%

Dew point: 49 °F

Location of Fürstenwalde/SpreeLocation

Historic Weather in Fürstenwalde/Spree — Graph

°F

Fürstenwalde/Spree temperature yesterday

Maximum temperature yesterday: 70 °F (at 3:00 PM)
Minimum temperature yesterday: 54 °F (at 8:00 AM)
Average temperature yesterday: 62 °F

Past Weeks' High & Low Weather Summary

 TemperatureHumidityPressure
High88 °F (Jul 17, 7:00 PM)99% (Jul 15, 1:00 AM)30.09 "Hg (Jul 15, 1:00 AM)
Low54 °F (Jul 27, 8:00 AM)33% (Jul 25, 6:00 PM)29.56 "Hg (Jul 27, 3:00 PM)
Average68 °F69%29.87 "Hg
* Reported Jul 13 7:00 PM — Jul 28 7:00 PM, Fürstenwalde/Spree, Weather by CustomWeather, © 2015

Note: Actual official high and low records may vary slightly from our data, if they occured in-between our weather recording intervals... More about our weather records

Advertising

Fürstenwalde/Spree weather history for previous 24 hours

 ConditionsComfort  
Time TempWeatherWind HumidityBarometerVisibility
7:00 PM
Tue, Jul 28
67 °FOvercast.9 mph53%29.67 "Hg19 mi
6:00 PM68 °FPartly sunny.8 mph49%29.66 "Hg25 mi
5:00 PM69 °FPartly sunny.8 mph46%29.65 "Hg25 mi
4:00 PM67 °FPartly sunny.8 mph49%29.65 "Hg25 mi
3:00 PM66 °FOvercast.9 mph54%29.65 "Hg25 mi
2:00 PM65 °FOvercast.8 mph60%29.65 "Hg28 mi
1:00 PM64 °FOvercast.8 mph61%29.64 "Hg28 mi
12:00 PM65 °FOvercast.8 mph61%29.63 "Hg28 mi
10:00 AM62 °FPartly sunny.7 mph74%29.62 "Hg28 mi
9:00 AM61 °FPartly sunny.8 mph84%29.62 "Hg28 mi
8:00 AM60 °FPartly sunny.6 mph92%29.62 "Hg25 mi
7:00 AM59 °FSprinkles. Overcast.5 mph92%29.60 "Hg19 mi
6:00 AM57 °FPartly sunny.5 mph93%29.61 "Hg12 mi
5:00 AM57 °FPassing clouds.5 mph93%29.60 "Hg16 mi
4:00 AM58 °FPassing clouds.5 mph94%29.61 "Hg16 mi
3:00 AM58 °FPassing clouds.5 mph95%29.61 "Hg19 mi
2:00 AM58 °FPassing clouds.5 mph94%29.61 "Hg25 mi
1:00 AM59 °FPassing clouds.5 mph95%29.62 "Hg16 mi
10:00 PM
Mon, Jul 27
61 °FSprinkles. Overcast.6 mph90%29.61 "Hg9 mi
9:00 PM61 °FPartly sunny.6 mph88%29.61 "Hg1 mi
8:00 PM64 °FSprinkles. Partly sunny.8 mph76%29.59 "Hg9 mi
Weather by CustomWeather, © 2015

See weather overviewHow to use our weather pages